GJS4456 KCHA-KORD

Flight info

Callsign GJS4456
Flight time N/A
Altitude 34000
Route GLAZR Q118 HEVAN BONNT VEECK5
Aircraft CRJ7/M-SDFGIRWY/S

Departure

Time 2026-04-10 22:25
Airport Chattanooga Metropolitan Airport (Lovell Field) (KCHA)

Arrival

Time N/A
Airport Chicago O'Hare International Airport (KORD)
Time Latitude Longitude Altitude Speed Heading
2026-04-10 21:57 35.03730 -85.19840 689 ft 0 kts 65°
2026-04-10 22:14 35.03722 -85.19865 689 ft 4 kts 76°
2026-04-10 22:14 35.03719 -85.19896 683 ft 4 kts 104°
2026-04-10 22:15 35.03731 -85.19919 684 ft 2 kts 162°
2026-04-10 22:15 35.03733 -85.19920 685 ft 1 kts 164°
2026-04-10 22:21 35.03733 -85.19919 685 ft 0 kts 164°
2026-04-10 22:22 35.03731 -85.19919 685 ft 2 kts 164°
2026-04-10 22:22 35.03720 -85.19926 685 ft 2 kts 260°
2026-04-10 22:22 35.03747 -85.19944 683 ft 9 kts
2026-04-10 22:22 35.03847 -85.19912 689 ft 19 kts 17°
2026-04-10 22:23 35.03962 -85.19869 686 ft 13 kts 17°
2026-04-10 22:23 35.04038 -85.19869 688 ft 7 kts 338°
2026-04-10 22:23 35.04096 -85.19906 685 ft 12 kts 328°
2026-04-10 22:23 35.04112 -85.19918 689 ft 3 kts 328°
2026-04-10 22:24 35.04147 -85.19943 686 ft 8 kts 328°
2026-04-10 22:24 35.04193 -85.20011 691 ft 8 kts 279°
2026-04-10 22:24 35.04158 -85.20064 692 ft 16 kts 204°
2026-04-10 22:24 35.03844 -85.20182 690 ft 82 kts 197°
2026-04-10 22:25 35.03091 -85.20453 686 ft 141 kts 197°
2026-04-10 22:25 35.02065 -85.20847 1035 ft 154 kts 199°
2026-04-10 22:25 35.01067 -85.21294 1716 ft 158 kts 200°
2026-04-10 22:25 34.99901 -85.21795 1883 ft 204 kts 199°
2026-04-10 22:26 34.98562 -85.22575 2578 ft 215 kts 215°
2026-04-10 22:26 34.97606 -85.23897 3739 ft 207 kts 244°
2026-04-10 22:26 34.97345 -85.25641 4543 ft 220 kts 275°
2026-04-10 22:26 34.97627 -85.27542 5087 ft 238 kts 268°
2026-04-10 22:27 34.97067 -85.29427 5847 ft 241 kts 233°
2026-04-10 22:27 34.96259 -85.31261 6513 ft 257 kts 258°
2026-04-10 22:27 34.96308 -85.33502 7033 ft 274 kts 277°
2026-04-10 22:27 34.96615 -85.35802 7796 ft 280 kts 279°
2026-04-10 22:28 34.96987 -85.38173 8726 ft 281 kts 281°
2026-04-10 22:28 34.97700 -85.40352 9564 ft 286 kts 307°
2026-04-10 22:28 34.99185 -85.41983 10380 ft 290 kts 317°
2026-04-10 22:28 35.00684 -85.43645 11166 ft 293 kts 323°
2026-04-10 22:29 35.02616 -85.44545 11603 ft 312 kts 354°
2026-04-10 22:29 35.04822 -85.44234 12108 ft 325 kts 13°
2026-04-10 22:29 35.07003 -85.43432 12854 ft 330 kts 18°
2026-04-10 22:29 35.09161 -85.42403 13633 ft 333 kts 21°
2026-04-10 22:30 35.11304 -85.41299 14355 ft 337 kts 21°
2026-04-10 22:30 35.13477 -85.40165 15030 ft 340 kts 21°
2026-04-10 22:30 35.15682 -85.39072 15690 ft 343 kts 20°
2026-04-10 22:30 35.17892 -85.38030 16320 ft 346 kts 19°
2026-04-10 22:31 35.20156 -85.36968 16954 ft 349 kts 19°
2026-04-10 22:31 35.22427 -85.35893 17572 ft 352 kts 19°
2026-04-10 22:31 35.24727 -85.34798 18195 ft 355 kts 19°
2026-04-10 22:31 35.27039 -85.33698 18777 ft 358 kts 19°
2026-04-10 22:32 35.29363 -85.32593 19299 ft 360 kts 19°
2026-04-10 22:32 35.31709 -85.31477 19812 ft 363 kts 19°
2026-04-10 22:32 35.34084 -85.30342 20198 ft 370 kts 19°
2026-04-10 22:32 35.36522 -85.29181 20378 ft 382 kts 19°
2026-04-10 22:33 35.39044 -85.27976 20470 ft 396 kts 19°
2026-04-10 22:33 35.41632 -85.26738 20504 ft 411 kts 19°
2026-04-10 22:33 35.44317 -85.25452 21257 ft 403 kts 19°
2026-04-10 22:33 35.46857 -85.24236 22171 ft 392 kts 18°
2026-04-10 22:34 35.49397 -85.23022 22758 ft 392 kts 18°
2026-04-10 22:34 35.51946 -85.21802 23192 ft 394 kts 18°
2026-04-10 22:34 35.54517 -85.20568 23627 ft 396 kts 18°
2026-04-10 22:34 35.57100 -85.19330 24008 ft 399 kts 18°
2026-04-10 22:35 35.59693 -85.18085 24351 ft 401 kts 18°
2026-04-10 22:35 35.62296 -85.16837 24708 ft 401 kts 18°
2026-04-10 22:35 35.64831 -85.15616 25368 ft 393 kts 18°
2026-04-10 22:35 35.67370 -85.14398 25733 ft 393 kts 18°
2026-04-10 22:36 35.69929 -85.13166 26028 ft 395 kts 18°
2026-04-10 22:36 35.72497 -85.11927 26343 ft 396 kts 17°
2026-04-10 22:36 35.75064 -85.10688 26653 ft 398 kts 18°
2026-04-10 22:36 35.77659 -85.09437 26945 ft 400 kts 18°
2026-04-10 22:37 35.80250 -85.08187 27233 ft 401 kts 18°
2026-04-10 22:37 35.82864 -85.06925 27518 ft 403 kts 18°
2026-04-10 22:37 35.85452 -85.05673 27788 ft 404 kts 17°
2026-04-10 22:37 35.88104 -85.04390 28066 ft 405 kts 17°
2026-04-10 22:38 35.90702 -85.03131 28309 ft 407 kts 17°
2026-04-10 22:38 35.93338 -85.01854 28569 ft 408 kts 18°
2026-04-10 22:38 35.95978 -85.00576 28816 ft 410 kts 18°
2026-04-10 22:38 35.98644 -84.99280 29071 ft 411 kts 17°
2026-04-10 22:39 36.01307 -84.97991 29304 ft 412 kts 17°
2026-04-10 22:39 36.03991 -84.96684 29534 ft 413 kts 17°
2026-04-10 22:39 36.06670 -84.95380 29930 ft 410 kts 17°
2026-04-10 22:39 36.09312 -84.94094 30283 ft 408 kts 17°
2026-04-10 22:40 36.11923 -84.92824 30535 ft 407 kts 17°
2026-04-10 22:40 36.14559 -84.91538 30789 ft 406 kts 17°
2026-04-10 22:40 36.17187 -84.90256 31006 ft 406 kts 17°
2026-04-10 22:40 36.19808 -84.88976 31235 ft 405 kts 17°
2026-04-10 22:41 36.22420 -84.87702 31591 ft 400 kts 17°
2026-04-10 22:41 36.24979 -84.86452 32043 ft 393 kts 17°
2026-04-10 22:41 36.27538 -84.85199 32117 ft 396 kts 17°
2026-04-10 22:41 36.30104 -84.83943 32334 ft 395 kts 17°
2026-04-10 22:42 36.32666 -84.82688 32518 ft 395 kts 17°
2026-04-10 22:42 36.35227 -84.81432 32727 ft 394 kts 17°
2026-04-10 22:42 36.37777 -84.80181 32926 ft 394 kts 17°
2026-04-10 22:42 36.40325 -84.78936 33110 ft 393 kts 15°
2026-04-10 22:43 36.42960 -84.78129 33261 ft 386 kts
2026-04-10 22:43 36.45583 -84.77779 33433 ft 383 kts 359°
2026-04-10 22:43 36.48250 -84.77688 33612 ft 381 kts 356°
2026-04-10 22:43 36.50904 -84.77690 33782 ft 381 kts 356°
2026-04-10 22:44 36.53543 -84.77687 33944 ft 380 kts 356°
2026-04-10 22:44 36.58878 -84.77599 34036 ft 386 kts 357°
2026-04-10 22:44 36.61584 -84.77518 34170 ft 386 kts 357°
2026-04-10 22:45 36.64238 -84.77443 34272 ft 388 kts 357°
2026-04-10 22:45 36.69670 -84.77286 34325 ft 394 kts 357°
2026-04-10 22:46 36.75200 -84.77127 34323 ft 400 kts 357°
2026-04-10 22:46 36.80803 -84.76959 34340 ft 406 kts 358°
2026-04-10 22:47 36.86493 -84.76795 34338 ft 411 kts 357°
2026-04-10 22:47 36.92261 -84.76628 34331 ft 417 kts 357°
2026-04-10 22:48 36.98058 -84.76461 34297 ft 422 kts 357°
2026-04-10 22:48 37.03947 -84.76284 34294 ft 423 kts 357°
2026-04-10 22:49 37.09855 -84.76110 34289 ft 426 kts 357°
2026-04-10 22:49 37.15802 -84.75937 34294 ft 429 kts 358°
2026-04-10 22:50 37.21807 -84.75757 34291 ft 431 kts 357°
2026-04-10 22:50 37.27786 -84.75583 34291 ft 433 kts 357°
2026-04-10 22:51 37.33809 -84.75415 34303 ft 433 kts 357°
2026-04-10 22:51 37.39842 -84.75196 34308 ft 432 kts 357°
2026-04-10 22:52 37.45850 -84.75009 34312 ft 432 kts 357°
2026-04-10 22:52 37.51853 -84.74811 34316 ft 431 kts 357°
2026-04-10 22:53 37.57812 -84.74617 34311 ft 430 kts 357°
2026-04-10 22:53 37.63800 -84.74421 34311 ft 430 kts 357°
2026-04-10 22:54 37.69777 -84.74229 34309 ft 429 kts 357°
2026-04-10 22:54 37.75755 -84.74034 34299 ft 429 kts 357°
2026-04-10 22:55 37.81719 -84.73851 34288 ft 428 kts 357°
2026-04-10 22:55 37.87631 -84.73670 34281 ft 428 kts 357°
2026-04-10 22:56 37.93587 -84.73489 34279 ft 427 kts 357°
2026-04-10 22:56 37.98534 -84.73327 34287 ft 427 kts 357°
2026-04-10 22:57 38.05453 -84.73116 34278 ft 427 kts 357°
2026-04-10 22:57 38.10425 -84.72959 34280 ft 427 kts 358°
2026-04-10 22:58 38.16333 -84.72776 34262 ft 426 kts 357°
2026-04-10 22:58 38.22262 -84.72593 34257 ft 426 kts 358°
2026-04-10 22:59 38.28189 -84.72406 34255 ft 426 kts 358°
2026-04-10 22:59 38.34126 -84.72223 34258 ft 425 kts 358°
2026-04-10 23:00 38.39966 -84.72039 34258 ft 425 kts 358°
2026-04-10 23:00 38.45880 -84.72284 34255 ft 419 kts 346°
2026-04-10 23:01 38.51522 -84.73994 34258 ft 417 kts 341°
2026-04-10 23:01 38.57007 -84.76211 34254 ft 415 kts 337°
2026-04-10 23:02 38.62405 -84.78824 34252 ft 415 kts 336°
2026-04-10 23:02 38.67822 -84.81398 34254 ft 415 kts 337°
2026-04-10 23:03 38.73250 -84.83923 34250 ft 415 kts 338°
2026-04-10 23:03 38.78685 -84.86451 34260 ft 415 kts 337°
2026-04-10 23:04 38.84116 -84.88982 34256 ft 415 kts 337°
2026-04-10 23:04 38.89537 -84.91513 34261 ft 415 kts 337°
2026-04-10 23:05 38.94959 -84.94060 34260 ft 414 kts 337°
2026-04-10 23:05 39.00378 -84.96576 34260 ft 414 kts 337°
2026-04-10 23:06 39.05773 -84.99113 34256 ft 414 kts 337°
2026-04-10 23:06 39.11190 -85.01648 34173 ft 415 kts 337°
2026-04-10 23:06 39.13918 -85.02938 33845 ft 420 kts 336°
2026-04-10 23:07 39.16689 -85.04245 33534 ft 425 kts 336°
2026-04-10 23:07 39.19477 -85.05558 33227 ft 428 kts 337°
2026-04-10 23:07 39.22246 -85.06859 32929 ft 430 kts 336°
2026-04-10 23:07 39.25062 -85.08195 32618 ft 431 kts 336°
2026-04-10 23:08 39.27881 -85.09520 32328 ft 432 kts 336°
2026-04-10 23:08 39.30704 -85.10858 32027 ft 432 kts 336°
2026-04-10 23:08 39.33531 -85.12199 31731 ft 432 kts 336°
2026-04-10 23:08 39.36357 -85.13542 31437 ft 430 kts 336°
2026-04-10 23:09 39.39144 -85.14849 31146 ft 426 kts 336°
2026-04-10 23:09 39.41910 -85.16161 30846 ft 422 kts 336°
2026-04-10 23:09 39.47380 -85.18762 30248 ft 416 kts 336°
2026-04-10 23:10 39.50099 -85.20056 29905 ft 414 kts 336°
2026-04-10 23:10 39.52797 -85.21340 29557 ft 413 kts 336°
2026-04-10 23:10 39.55501 -85.22623 29227 ft 412 kts 336°
2026-04-10 23:10 39.58156 -85.23891 28890 ft 411 kts 336°
2026-04-10 23:11 39.60835 -85.25165 28574 ft 410 kts 336°
2026-04-10 23:11 39.63542 -85.26458 28404 ft 407 kts 336°
2026-04-10 23:11 39.68750 -85.28948 28311 ft 397 kts 336°
2026-04-10 23:12 39.73897 -85.31408 28299 ft 391 kts 336°
2026-04-10 23:12 39.78990 -85.33848 28303 ft 390 kts 336°
2026-04-10 23:13 39.84118 -85.36312 28307 ft 396 kts 336°
2026-04-10 23:13 39.89349 -85.38823 28308 ft 404 kts 336°
2026-04-10 23:14 39.94647 -85.41378 28308 ft 410 kts 336°
2026-04-10 23:14 39.99982 -85.43946 28305 ft 413 kts 335°
2026-04-10 23:15 40.05420 -85.46578 28317 ft 419 kts 335°
2026-04-10 23:15 40.10906 -85.49235 28321 ft 420 kts 335°
2026-04-10 23:16 40.16380 -85.51889 28321 ft 419 kts 335°
2026-04-10 23:16 40.21843 -85.54545 28315 ft 418 kts 335°
2026-04-10 23:17 40.27292 -85.57186 28313 ft 417 kts 335°
2026-04-10 23:17 40.32691 -85.59824 28303 ft 414 kts 335°
2026-04-10 23:18 40.37999 -85.62598 28317 ft 404 kts 326°
2026-04-10 23:18 40.40255 -85.64735 28335 ft 398 kts 315°
2026-04-10 23:18 40.42131 -85.67380 28334 ft 394 kts 307°
2026-04-10 23:19 40.45470 -85.73060 28333 ft 392 kts 306°
2026-04-10 23:19 40.48919 -85.78587 27839 ft 390 kts 308°
2026-04-10 23:20 40.50670 -85.81318 27835 ft 389 kts 308°
2026-04-10 23:20 40.52397 -85.84044 27833 ft 388 kts 308°
2026-04-10 23:20 40.54130 -85.86770 27836 ft 387 kts 308°
2026-04-10 23:20 40.55857 -85.89496 27833 ft 387 kts 308°
2026-04-10 23:21 40.57576 -85.92212 27862 ft 386 kts 308°
2026-04-10 23:21 40.59275 -85.94890 28340 ft 385 kts 308°
2026-04-10 23:21 40.62696 -86.00302 28336 ft 384 kts 307°
2026-04-10 23:22 40.66104 -86.05706 28311 ft 383 kts 307°
2026-04-10 23:22 40.69508 -86.11118 28063 ft 387 kts 307°
2026-04-10 23:23 40.71251 -86.13883 27645 ft 395 kts 307°
2026-04-10 23:23 40.73011 -86.16685 27265 ft 399 kts 307°
2026-04-10 23:23 40.74776 -86.19500 26894 ft 398 kts 307°
2026-04-10 23:23 40.76538 -86.22306 26517 ft 393 kts 307°
2026-04-10 23:24 40.78272 -86.25080 26139 ft 391 kts 307°
2026-04-10 23:24 40.79998 -86.27836 25701 ft 389 kts 307°
2026-04-10 23:24 40.81721 -86.30594 25267 ft 388 kts 308°
2026-04-10 23:24 40.83437 -86.33342 24841 ft 388 kts 308°
2026-04-10 23:25 40.85136 -86.36057 24421 ft 387 kts 308°
2026-04-10 23:25 40.86855 -86.38798 23996 ft 386 kts 307°
2026-04-10 23:25 40.88577 -86.41507 23520 ft 385 kts 307°
2026-04-10 23:25 40.90288 -86.44217 23038 ft 380 kts 307°
2026-04-10 23:26 40.91957 -86.46891 22554 ft 374 kts 306°
2026-04-10 23:26 40.93596 -86.49542 22085 ft 370 kts 306°
2026-04-10 23:26 40.95217 -86.52168 21616 ft 367 kts 306°
2026-04-10 23:26 40.96825 -86.54768 21154 ft 364 kts 307°
2026-04-10 23:27 40.98405 -86.57316 20708 ft 361 kts 307°
2026-04-10 23:27 40.99996 -86.59882 20256 ft 360 kts 307°
2026-04-10 23:27 41.01578 -86.62436 19823 ft 358 kts 307°
2026-04-10 23:27 41.03154 -86.64983 19397 ft 357 kts 307°
2026-04-10 23:28 41.04724 -86.67526 18972 ft 356 kts 307°
2026-04-10 23:28 41.06288 -86.70064 18542 ft 355 kts 307°
2026-04-10 23:28 41.07876 -86.72638 18053 ft 355 kts 307°
2026-04-10 23:28 41.09412 -86.75131 17601 ft 354 kts 307°
2026-04-10 23:29 41.10970 -86.77659 17116 ft 354 kts 307°
2026-04-10 23:29 41.12531 -86.80196 16665 ft 354 kts 307°
2026-04-10 23:29 41.14091 -86.82734 16216 ft 354 kts 307°
2026-04-10 23:29 41.15650 -86.85272 15770 ft 354 kts 307°
2026-04-10 23:30 41.17201 -86.87800 15331 ft 354 kts 307°
2026-04-10 23:30 41.18758 -86.90341 14898 ft 354 kts 307°
2026-04-10 23:30 41.20298 -86.92853 14475 ft 354 kts 307°
2026-04-10 23:30 41.21855 -86.95396 14040 ft 354 kts 307°
2026-04-10 23:31 41.23404 -86.97925 13571 ft 354 kts 307°
2026-04-10 23:31 41.24958 -87.00463 13112 ft 353 kts 307°
2026-04-10 23:31 41.26504 -87.02988 12667 ft 352 kts 307°
2026-04-10 23:31 41.28043 -87.05512 12214 ft 350 kts 307°
2026-04-10 23:32 41.29564 -87.08008 11790 ft 346 kts 307°
2026-04-10 23:32 41.31059 -87.10460 11551 ft 334 kts 307°
2026-04-10 23:32 41.32452 -87.12736 11453 ft 324 kts 307°
2026-04-10 23:32 41.33849 -87.15032 11400 ft 324 kts 307°
2026-04-10 23:33 41.35274 -87.17395 11392 ft 328 kts 307°
2026-04-10 23:33 41.36711 -87.19777 11386 ft 331 kts 307°
2026-04-10 23:33 41.38163 -87.22175 11381 ft 333 kts 307°
2026-04-10 23:33 41.39617 -87.24586 11285 ft 337 kts 307°
2026-04-10 23:34 41.41080 -87.27019 11057 ft 342 kts 307°
2026-04-10 23:34 41.42606 -87.29474 10829 ft 344 kts 312°
2026-04-10 23:34 41.44602 -87.31263 10608 ft 351 kts 334°
2026-04-10 23:34 41.46919 -87.32254 10493 ft 348 kts 338°
2026-04-10 23:35 41.49019 -87.33313 10437 ft 339 kts 332°
2026-04-10 23:35 41.51072 -87.34755 10404 ft 329 kts 325°
2026-04-10 23:35 41.52938 -87.36449 10390 ft 320 kts 320°
2026-04-10 23:35 41.54695 -87.38265 10383 ft 321 kts 318°
2026-04-10 23:36 41.56446 -87.40109 10382 ft 329 kts 319°
2026-04-10 23:36 41.58271 -87.42017 10386 ft 336 kts 319°
2026-04-10 23:36 41.60136 -87.43968 10394 ft 343 kts 319°
2026-04-10 23:36 41.62026 -87.45949 10391 ft 348 kts 319°
2026-04-10 23:37 41.63935 -87.47950 10387 ft 348 kts 319°
2026-04-10 23:37 41.65839 -87.49927 10386 ft 346 kts 319°
2026-04-10 23:37 41.67705 -87.51935 10387 ft 342 kts 317°
2026-04-10 23:37 41.69513 -87.53984 10388 ft 339 kts 316°
2026-04-10 23:38 41.71298 -87.56032 10387 ft 336 kts 316°
2026-04-10 23:38 41.73073 -87.58047 10367 ft 334 kts 317°
2026-04-10 23:38 41.74836 -87.60058 10361 ft 331 kts 316°
2026-04-10 23:38 41.76577 -87.62040 10360 ft 327 kts 317°
2026-04-10 23:39 41.78270 -87.63950 10362 ft 324 kts 317°
2026-04-10 23:39 41.79996 -87.65881 10364 ft 322 kts 317°
2026-04-10 23:39 41.81726 -87.67812 10358 ft 326 kts 317°
2026-04-10 23:39 41.83409 -87.69857 10356 ft 325 kts 309°
2026-04-10 23:40 41.84755 -87.72278 10358 ft 325 kts 302°
2026-04-10 23:40 41.85968 -87.74843 10362 ft 326 kts 300°
2026-04-10 23:40 41.87164 -87.77432 10363 ft 327 kts 301°
2026-04-10 23:40 41.88192 -87.80111 10356 ft 327 kts 286°
2026-04-10 23:41 41.88502 -87.83173 10357 ft 329 kts 275°
2026-04-10 23:41 41.88562 -87.86252 10357 ft 330 kts 271°
2026-04-10 23:41 41.88522 -87.89332 10373 ft 331 kts 271°
2026-04-10 23:41 41.88469 -87.92389 10381 ft 332 kts 270°
2026-04-10 23:42 41.88417 -87.95495 10376 ft 332 kts 271°
2026-04-10 23:42 41.88393 -87.98582 10370 ft 328 kts 271°
2026-04-10 23:42 41.88359 -88.01632 10364 ft 325 kts 271°
2026-04-10 23:42 41.88313 -88.03640 10366 ft 323 kts 270°
2026-04-10 23:43 41.88215 -88.06639 10358 ft 319 kts 270°
2026-04-10 23:43 41.88117 -88.09548 10283 ft 306 kts 270°
2026-04-10 23:43 41.88017 -88.12308 9984 ft 289 kts 269°
2026-04-10 23:43 41.87906 -88.14979 9684 ft 283 kts 269°
2026-04-10 23:44 41.87787 -88.17569 9384 ft 273 kts 269°
2026-04-10 23:44 41.87685 -88.20056 9090 ft 263 kts 270°
2026-04-10 23:44 41.87596 -88.22506 8802 ft 262 kts 270°
2026-04-10 23:44 41.87507 -88.24950 8526 ft 263 kts 270°
2026-04-10 23:45 41.87412 -88.27409 8239 ft 263 kts 270°
2026-04-10 23:45 41.87313 -88.29862 7966 ft 264 kts 270°
2026-04-10 23:45 41.87207 -88.32316 7701 ft 264 kts 270°
2026-04-10 23:45 41.87100 -88.34746 7445 ft 264 kts 270°
2026-04-10 23:46 41.86992 -88.37201 7180 ft 264 kts 270°
2026-04-10 23:46 41.86890 -88.39654 6935 ft 263 kts 271°
2026-04-10 23:46 41.87175 -88.42016 6653 ft 256 kts 298°
2026-04-10 23:46 41.88078 -88.44045 6394 ft 251 kts 304°
2026-04-10 23:47 41.89028 -88.45988 6111 ft 245 kts 305°
2026-04-10 23:47 41.89975 -88.47833 5808 ft 234 kts 306°
2026-04-10 23:47 41.91030 -88.49420 5538 ft 222 kts 330°
2026-04-10 23:47 41.92468 -88.49750 5429 ft 210 kts 13°
2026-04-10 23:48 41.93623 -88.48661 5415 ft 212 kts 56°
2026-04-10 23:48 41.94259 -88.46840 5402 ft 217 kts 64°
2026-04-10 23:48 41.94838 -88.44928 5393 ft 225 kts 66°
2026-04-10 23:48 41.95394 -88.42949 5388 ft 226 kts 69°
2026-04-10 23:49 41.95763 -88.40888 5386 ft 228 kts 76°
2026-04-10 23:49 41.96059 -88.38786 5374 ft 230 kts 78°
2026-04-10 23:49 41.96318 -88.36656 5368 ft 231 kts 79°
2026-04-10 23:49 41.96502 -88.34506 5370 ft 232 kts 83°
2026-04-10 23:50 41.96604 -88.32346 5379 ft 232 kts 85°
2026-04-10 23:50 41.96649 -88.30180 5373 ft 232 kts 87°
2026-04-10 23:50 41.96661 -88.28014 5368 ft 232 kts 88°
2026-04-10 23:50 41.96656 -88.25845 5364 ft 232 kts 88°
2026-04-10 23:51 41.96648 -88.23707 5290 ft 234 kts 88°
2026-04-10 23:51 41.96625 -88.21442 4948 ft 241 kts 89°
2026-04-10 23:51 41.96582 -88.19219 4599 ft 234 kts 89°
2026-04-10 23:51 41.96573 -88.17064 4264 ft 228 kts 88°
2026-04-10 23:52 41.96582 -88.15137 3996 ft 222 kts 87°
2026-04-10 23:52 41.96583 -88.13352 3720 ft 218 kts 88°
2026-04-10 23:52 41.96583 -88.11335 3423 ft 210 kts 87°
2026-04-10 23:52 41.96585 -88.09446 3189 ft 193 kts 88°
2026-04-10 23:53 41.96591 -88.07720 2924 ft 182 kts 87°
2026-04-10 23:53 41.96600 -88.06071 2627 ft 174 kts 87°
2026-04-10 23:53 41.96603 -88.04410 2394 ft 179 kts 88°
2026-04-10 23:53 41.96607 -88.02765 2168 ft 169 kts 87°
2026-04-10 23:54 41.96595 -88.01260 1928 ft 154 kts 89°
2026-04-10 23:54 41.96525 -87.99933 1643 ft 134 kts 91°
2026-04-10 23:54 41.96500 -87.98710 1396 ft 130 kts 83°
2026-04-10 23:54 41.96557 -87.97442 1194 ft 147 kts 87°
2026-04-10 23:55 41.96545 -87.96150 1098 ft 139 kts 89°
2026-04-10 23:55 41.96551 -87.94878 913 ft 140 kts 88°
2026-04-10 23:55 41.96558 -87.93633 773 ft 124 kts 86°